Location: �chenoz-la-M�line
(47.6009°N, 6.1354°E)
Time: 12:38:14
(UTC+00:00)

Cosmos 2278 Rocket - Pass Details

Date: 27 January 2021
Orbit: 840 x 847 km, 71.0° (Epoch: 03 March)

Event Time Altitude Azimuth Distance (km) Brightness Sun altitude
Exits shadow 03:36:45 17° 144° (SE) 2,032 4.4 -35.5°
Drops below altitude 10° 03:37:54 10° 146° (SE) 2,462 4.8 -35.3°
Sets 03:40:21 0° 148° (SSE) 3,393 5.6 -34.9°
